STARLINK-38014, 69721

Orbit data source: Space-Track

STARLINK-38014, 69721 is a payload satellite owned by SpaceX/Seattle (US) in SSO that was launched on Sun, 28 Jun 2026 UTC via an FALCON 9 launch vehicle from the Air Force Western Test Range (AFWTR). Payload-class satellites include a variety of spacecraft equipped with specific instruments for various scientific and technological missions. These include communications satellites like Starlink; space stations such as the ISS; scientific satellites like the Hubble; Earth observation satellites from companies like Planet Labs, Umbra, and HawkEye 360; GPS; miniature CubeSats for education and research; and military/defense satellites.

Loading next visibility...
Identifier
69721, 2026-147T
Orbit
SSO
Country
Flag of USUS
Related business
Manufacturer
SpaceX/Seattle
Mission
Operational spacecraft
Bus & Motor
STARLINK V2MO, Unknown motor
Mass
575 kg wet, ~530 kg dry
Launch date (UTC)
2026-06-28 (2 weeks ago)
Launch vehicle
FALCON 9
Launch site
Air Force Western Test Range (AFWTR)
Object type
Payload
Rocket body
Debris
Shape & HBR
Unknown shape, 17.7 m
Radar Cross Section
Large (>1 m²)

Expand to show TLE details & history
Last TLE update: 7 hours ago

TLE from 7 hours ago
0 STARLINK-38014
1 69721U 26147T   26193.05462071  .00139188  00000-0  71398-3 0  9992
2 69721  97.2856 229.2908 0001149  98.6566 261.4832 15.80873694  3360
Epoch: 2026-07-12T01:18Z
TLE epoch observation values (Epoch: 2026-07-12T01:18:39.229Z)
Latitude
-0.00006°
Longitude
-80.33164°
Altitude
331.259 km
Speed
7.71 km/s
True Right ascension
15h 17m 09s
True Declination
0° 00' 00"
Sunlit
Object was in full shadow at epoch
Visualization orbit readout
Latitude
Unknown
Longitude
Unknown
Altitude
Unknown
Speed
Unknown
Apparent Right ascension
Unknown
Apparent Declination
Unknown
Sunlit
N/A
Visualization observer readout
Local Sidereal Time
21:09:08
Azimuth
Unknown
Elevation
Unknown
Doppler factor
Unknown
Orbital elements
Apogee altitude
325.619 km
Perigee altitude
324.078 km
Semi-major axis
6,702.986 km
Eccentricity
0.00011
Inclination
97.2856°
RAAN
229.2908°
Arg. of periapsis
98.6566°
True anomaly
261.47018°
Mean anomaly
261.4832°
Eccentric anomaly
261.47669°
Mean motion
3.95495 °/min
Orbital period
91.03 mins
BSTAR
0.00071398
Loading maneuver chart data...
Computing Atmospheric mass density...
Loading historical data...
Loading historical data...
Loading historical data...
Loading historical data...
Loading historical data...
Loading historical data...
Loading historical data...

Documentation

Showing up to 5 results
|